N2YJJ-2 Weather Reports


Display with metric or nautical units.
time (UTC)temp
F
wind
direction
speed
MPH
gust
MPH
rain 1hr
in
rain 24hr
in
rain mn
in
humidity
%
barometer
mb
20260905181003 76 30 2.0 3.0 0.00 0.02 0.01 69 1019.4
20260905175003 76 45 2.0 7.0 0.00 0.02 0.01 68 1019.5
20260905174004 76 100 2.0 7.0 0.00 0.02 0.01 67 1019.5
20260905172002 76 21 2.0 6.0 0.00 0.02 0.01 69 1019.6
20260905171003 75 14 2.0 7.0 0.00 0.02 0.01 69 1019.6
20260905164003 76 39 3.0 8.0 0.00 0.02 0.01 68 1019.5
20260905163003 75 98 1.0 7.0 0.00 0.02 0.01 71 1019.6
20260905162004 75 348 2.0 8.0 0.00 0.02 0.01 73 1019.8
20260905160005 75 48 3.0 7.0 0.00 0.02 0.01 70 1019.9
20260905155003 75 83 2.0 3.0 0.00 0.02 0.01 75 1019.9
20260905154004 74 351 2.0 7.0 0.00 0.02 0.01 78 1019.9
20260905152004 75 355 2.0 8.0 0.00 0.02 0.01 76 1020.1
20260905151003 75 11 1.0 9.0 0.00 0.02 0.01 76 1020.0
20260905150003 74 322 2.0 9.0 0.00 0.02 0.01 77 1019.9
20260905145003 74 348 1.0 3.0 0.00 0.02 0.01 76 1020.0
20260905143003 74 275 1.0 5.0 0.00 0.02 0.01 78 1019.9
20260905142004 73 41 1.0 3.0 0.00 0.02 0.01 80 1020.0
20260905141003 72 350 1.0 5.0 0.00 0.02 0.01 83 1020.0
20260905140004 71 75 2.0 5.0 0.00 0.02 0.01 85 1020.0
20260905135004 70 69 1.0 3.0 0.00 0.02 0.01 91 1020.0
20260905133004 68 71 1.0 2.0 0.00 0.02 0.01 97 1019.9
20260905130003 66 61 0.0 0.0 0.00 0.02 0.01 100 1020.0
20260905125004 65 11 0.0 0.0 0.00 0.02 0.01 100 1020.1
20260905122002 60 288 0.0 0.0 0.00 0.02 0.01 100 1020.2
20260905121002 59 288 0.0 0.0 0.01 0.02 0.01 100 1020.1
20260905120001 59 288 0.0 0.0 0.01 0.02 0.01 100 1020.1
20260905115002 58 288 0.0 0.0 0.01 0.03 0.01 100 1020.0
20260905114001 58 288 0.0 0.0 0.01 0.03 0.01 100 1019.9
20260905113002 58 288 0.0 0.0 0.01 0.03 0.01 99 1019.7
20260905112003 58 288 0.0 0.0 0.01 0.03 0.01 99 1019.6
20260905111002 58 288 0.0 0.0 0.00 0.02 0.00 99 1019.5
20260905110003 58 288 0.0 0.0 0.00 0.02 0.00 99 1019.6
20260905105003 58 288 0.0 0.0 0.00 0.02 0.00 99 1019.6
20260905104002 58 288 0.0 0.0 0.00 0.02 0.00 99 1019.6
20260905103001 58 288 0.0 0.0 0.00 0.02 0.00 99 1019.6
20260905102001 58 288 0.0 0.0 0.00 0.02 0.00 99 1019.4
20260905101002 58 288 0.0 0.0 0.00 0.02 0.00 99 1019.2
20260905095001 58 288 0.0 0.0 0.00 0.02 0.00 99 1019.2
20260905094002 59 288 0.0 0.0 0.00 0.02 0.00 99 1019.2
20260905093002 59 288 0.0 0.0 0.00 0.02 0.00 99 1019.1
20260905092002 59 288 0.0 0.0 0.00 0.02 0.00 99 1019.0
20260905091001 59 288 0.0 0.0 0.00 0.02 0.00 99 1018.9
20260905090003 59 288 0.0 0.0 0.00 0.02 0.00 99 1018.8
20260905085002 59 288 0.0 0.0 0.00 0.02 0.00 99 1018.6
20260905084001 59 288 0.0 0.0 0.00 0.02 0.00 99 1018.6
20260905083002 60 288 0.0 0.0 0.00 0.02 0.00 99 1018.6
20260905082002 60 288 0.0 0.0 0.00 0.02 0.00 98 1018.5
20260905081003 60 288 0.0 0.0 0.00 0.02 0.00 99 1018.5
20260905075001 60 288 0.0 0.0 0.00 0.02 0.00 99 1018.9
20260905074001 60 288 0.0 0.0 0.00 0.02 0.00 99 1018.9
20260905073003 61 288 0.0 0.0 0.00 0.02 0.00 99 1018.9
20260905072002 61 288 0.0 0.0 0.00 0.02 0.00 98 1018.9
20260905071002 61 288 0.0 0.0 0.00 0.02 0.00 98 1018.8
20260905070002 61 288 0.0 0.0 0.00 0.02 0.00 98 1018.9
20260905064001 61 288 0.0 0.0 0.00 0.02 0.00 98 1018.9
20260905063003 62 288 0.0 0.0 0.00 0.02 0.00 98 1019.0
20260905062002 62 288 0.0 0.0 0.00 0.02 0.00 98 1019.1
20260905061003 62 288 0.0 0.0 0.00 0.02 0.00 98 1019.0
20260905060003 62 288 0.0 0.0 0.00 0.02 0.00 98 1019.0
20260905055003 62 288 0.0 0.0 0.00 0.02 0.00 98 1019.0
20260905053002 63 288 0.0 0.0 0.00 0.02 0.00 98 1019.0
20260905052002 63 288 0.0 0.0 0.00 0.02 0.00 98 1019.1
20260905051002 63 288 0.0 0.0 0.00 0.02 0.00 98 1019.1
20260905050002 63 288 0.0 0.0 0.00 0.02 0.00 98 1019.2
20260905045002 63 288 0.0 0.0 0.00 0.02 0.00 98 1019.1
20260905044002 64 288 0.0 0.0 0.00 0.02 0.00 98 1019.2
20260905043002 64 288 0.0 0.0 0.00 0.02 0.00 98 1019.2
20260905041002 64 288 0.0 0.0 0.00 0.02 0.00 98 1019.1
20260905040003 64 288 0.0 0.0 0.00 0.02 0.00 98 1019.1
20260905035003 64 288 0.0 0.0 0.00 0.02 0.02 98 1019.1
20260905034002 64 288 0.0 0.0 0.00 0.03 0.02 98 1019.1
20260905033003 64 288 0.0 0.0 0.00 0.03 0.02 98 1019.2
20260905032002 64 288 0.0 0.0 0.00 0.03 0.02 97 1019.1
20260905030003 65 288 0.0 0.0 0.00 0.03 0.02 97 1019.1
20260905025002 65 288 0.0 0.0 0.00 0.03 0.02 97 1019.2
20260905024002 65 288 0.0 0.0 0.00 0.03 0.02 97 1019.3
20260905022002 65 288 0.0 0.0 0.00 0.03 0.02 96 1019.2
20260905021003 66 288 0.0 0.0 0.00 0.03 0.02 96 1019.1
20260905020002 66 288 0.0 0.0 0.00 0.03 0.02 95 1019.2
20260905015002 66 288 0.0 0.0 0.00 0.03 0.02 95 1019.3
20260905014002 67 288 0.0 0.0 0.00 0.03 0.02 95 1019.3
20260905010002 68 288 0.0 0.0 0.00 0.03 0.02 93 1019.2
20260905005003 68 288 0.0 0.0 0.00 0.03 0.02 92 1019.1
20260905004003 69 288 0.0 0.0 0.00 0.03 0.02 92 1018.9
20260905003002 69 288 0.0 0.0 0.00 0.03 0.02 92 1019.0
20260905002003 69 288 0.0 0.0 0.00 0.03 0.02 91 1019.0
20260905001003 69 288 0.0 0.0 0.00 0.03 0.02 91 1018.8
20260905000003 70 288 0.0 0.0 0.00 0.03 0.02 90 1018.7
20260904234003 70 288 0.0 0.0 0.00 0.03 0.02 89 1018.7
20260904233003 70 288 0.0 0.0 0.00 0.03 0.02 89 1018.8
20260904232003 71 288 0.0 0.0 0.00 0.03 0.02 88 1018.7
20260904230002 71 288 0.0 0.0 0.00 0.03 0.02 86 1018.5
20260904225003 72 281 0.0 0.0 0.00 0.03 0.02 85 1018.4
20260904224003 72 281 0.0 0.0 0.00 0.03 0.02 85 1018.2
20260904223003 72 280 0.0 0.0 0.00 0.03 0.02 81 1018.0
20260904222003 73 280 0.0 0.0 0.00 0.04 0.02 80 1017.9
20260904221002 73 280 0.0 1.0 0.00 0.04 0.02 81 1017.9
20260904220003 74 280 0.0 2.0 0.00 0.04 0.02 81 1017.9
20260904215002 74 22 0.0 0.0 0.01 0.04 0.02 82 1017.9
20260904214003 74 22 0.0 0.0 0.01 0.04 0.02 81 1017.9
20260904213003 74 22 0.0 0.0 0.01 0.04 0.02 80 1017.8
20260904212002 74 22 0.0 1.0 0.01 0.04 0.02 77 1018.0
20260904211003 75 336 0.0 1.0 0.01 0.04 0.02 77 1018.1
20260904205003 76 336 0.0 1.0 0.00 0.03 0.01 71 1018.2
20260904204003 76 12 0.0 2.0 0.00 0.03 0.01 72 1018.3
20260904203003 77 260 0.0 2.0 0.00 0.03 0.01 73 1018.1
20260904202003 77 339 0.0 2.0 0.00 0.03 0.01 71 1018.4
20260904195003 78 245 1.0 2.0 0.00 0.03 0.01 68 1018.4
20260904194003 78 307 0.0 2.0 0.00 0.04 0.01 72 1018.8
20260904193003 77 271 0.0 2.0 0.00 0.04 0.01 70 1018.9
20260904192003 76 263 0.0 1.0 0.00 0.04 0.01 74 1019.1
20260904191003 76 101 0.0 2.0 0.00 0.04 0.01 73 1019.2
20260904190003 77 0 0.0 3.0 0.00 0.04 0.01 75 1019.4
20260904185003 77 101 0.0 2.0 0.00 0.04 0.01 73 1019.3
20260904184003 77 246 0.0 1.0 0.00 0.04 0.01 73 1019.3
20260904182003 80 43 1.0 3.0 0.00 0.04 0.01 68 1019.4